www.pogodaiklimat.ru

Погода и климат >> Архив погоды >> Франция >> Аббевилль


ПОГОДА в Аббевилле

  • Прогноз погоды в Аббевилле
  • Монитор погоды в Аббевилле

АРХИВ ПОГОДЫ в Аббевилле

Время (UTC), дата Ветер
(напр.,м/с)
 
Видим.   Явления Облачность Т
(С)
Тd
(С)
f
(%)
Тe
(С)
Тes
(С)
Комфортность P
(гПа)
Po
(гПа)
Тmin
(С)
Tmax
(С)
R
(мм)
R24
(мм)
S
(см)
13 18.08 З 5 19 км н/о +19.3 +12.6 65 +20 +20 1008.6 1000.2
14 18.08 З 4 19 км н/о +18.9 +11.9 64 +20 +20 1009.6 1001.2
15 18.08 З 8
{13}
20 км н/о +19.2 +11.2 60 +19 +19 1010.2 1001.8 0
16 18.08 З 4 20 км н/о +19.3 +12.1 63 +20 +20 1010.2 1001.8
17 18.08 З 4 20 км н/о +18.6 +11.7 64 +19 +19 1010.7 1002.3
18 18.08 З 6
{12}
20 км н/о +17.6 +11.8 69 +17 +17 1011.1 1002.6 +14.3 +20.1 0
19 18.08 З 2 20 км н/о +16.0 +11.4 74 +16 +16 1011.3 1002.8
20 18.08 ЮЗ 1 20 км н/о +14.9 +11.1 78 +15 +15 1011.9 1003.4
21 18.08 ЮЗ 1
{4}
20 км н/о +13.8 +10.8 82 +14 +14 1012.3 1003.7 0
22 18.08 ЮЗ 1 20 км н/о +13.6 +10.6 82 +14 +14 1012.9 1004.3
23 18.08 ЮЗ 1 8000 м слаб. дождь н/о +13.7 +11.0 84 +14 +14 1013.4 1004.8 0.4
00 19.08 ЮЗ 2
{3}
20 км н/о +13.1 +10.6 85 +13 +13 1013.7 1005.1 0.4 0
01 19.08 ЮЗ 1 20 км н/о +13.1 +11.0 87 +13 +13 1014.1 1005.5
02 19.08 ЮЗ 1 20 км н/о +13.1 +11.3 89 +13 +13 1014.3 1005.7 0.2
03 19.08 ЮЗ 2
{5}
8000 м слаб. дождь н/о +13.5 +11.9 90 +13 +13 1014.5 1005.9 0.6 0
04 19.08 ЮЗ 1 19 км н/о +13.2 +11.6 90 +13 +13 1014.8 1006.2 0.0
05 19.08 Ю 1 19 км н/о +12.5 +10.9 90 +12 +12 1015.2 1006.6
06 19.08 ЮЗ 2
{5}
19 км н/о +13.4 +12.0 91 +13 +13 1015.6 1007.0 +12.5 +17.5 0.0 0
07 19.08 ЮЗ 2 20 км н/о +15.5 +13.2 86 +16 +16 1015.8 1007.2
08 19.08 ЮЗ 2 19 км н/о +17.2 +13.5 79 +18 +18 1016.1 1007.6
09 19.08 З 5
{9}
19 км н/о +17.8 +12.7 72 +17 +17 1016.7 1008.2 0
10 19.08 З 3 20 км н/о +18.7 +11.5 63 +20 +20 1017.1 1008.6
11 19.08 З 3 17 км н/о +17.7 +13.0 74 +18 +18 1017.5 1009.0 0.2
12 19.08 З 4
{11}
20 км н/о +18.1 +13.8 76 +18 +18 1018.0 1009.5 0.4 0
13 19.08 З 4 19 км н/о +19.8 +12.3 62 +21 +21 комфорт 1018.2 1009.7
14 19.08 З 4 19 км н/о +19.0 +12.5 66 +20 +20 1018.7 1010.2
15 19.08 З 7
{12}
20 км н/о +19.2 +11.0 59 +20 +20 1018.8 1010.3 0
16 19.08 З 4 20 км н/о +18.8 +11.8 64 +19 +19 1019.0 1010.5
17 19.08 З 4 19 км н/о +18.3 +11.6 65 +19 +19 1019.3 1010.8
18 19.08 З 6
{11}
20 км н/о +17.5 +12.0 70 +17 +17 1019.4 1010.9 +13.4 +20.0 0
19 19.08 З 2 20 км н/о +16.1 +12.1 77 +16 +16 1019.9 1011.3
20 19.08 З 1 20 км н/о +14.9 +11.7 81 +15 +15 1020.5 1011.9
21 19.08 З 1
{3}
20 км н/о +13.8 +11.3 85 +14 +14 1020.8 1012.1 0
22 19.08 Ю 1 20 км н/о +13.3 +11.4 88 +14 +14 1021.3 1012.6
23 19.08 Ю 1 19 км н/о +13.1 +11.5 90 +14 +14 1021.5 1012.8
00 20.08 Ю 2
{3}
19 км н/о +12.6 +11.0 90 +12 +12 1021.4 1012.7 0
01 20.08 Ю 1 20 км н/о +12.3 +10.9 91 +12 +12 1021.6 1012.9
02 20.08 ЮЗ 1 19 км н/о +12.0 +10.7 92 +13 +13 1021.4 1012.7
03 20.08 Ю 1
{3}
19 км н/о +11.8 +10.5 92 +12 +12 1021.5 1012.8 0
04 20.08 Ю 1 20 км н/о +11.5 +10.4 93 +12 +12 1021.4 1012.7
05 20.08 Ю 1 19 км н/о +11.5 +10.4 93 +11 +11 1022.1 1013.4
06 20.08 Ю 2
{3}
19 км н/о +12.6 +11.5 93 +12 +12 1022.7 1014.0 +11.4 +17.5 0
07 20.08 ЮЗ 1 20 км н/о +14.7 +12.9 89 +15 +15 1023.1 1014.5
08 20.08 ЮЗ 2 19 км н/о +16.7 +13.2 80 +17 +17 1023.4 1014.8
09 20.08 З 5
{8}
20 км н/о +17.5 +11.5 68 +17 +17 1023.8 1015.2 0
10 20.08 З 3 20 км н/о +18.6 +11.9 65 +20 +20 1023.9 1015.4
11 20.08 З 3 20 км н/о +19.1 +10.4 57 +20 +20 1024.2 1015.7
12 20.08 З 6
{10}
20 км н/о +18.8 +10.9 60 +19 +19 1024.5 1016.0 0
13 20.08 З 3 20 км н/о +18.4 +10.5 60 +19 +19 1025.1 1016.5
14 20.08 З 3 н/о н/о +18.6 +10.7 60 +19 +19 1025.1 1016.5
15 20.08 З 4 20 км н/о +19.1 +10.6 58 +20 +20 1025.5 1017.0
16 20.08 З 3 20 км н/о +18.9 +9.9 56 +20 +20 1025.9 1017.3
17 20.08 З 3 20 км н/о +18.2 +8.2 52 +19 +19 1026.1 1017.5
18 20.08 З 2 20 км н/о +17.3 +9.5 60 +18 +18 1026.6 1018.0 +12.7 +19.5
19 20.08 З 1 20 км н/о +14.8 +9.6 71 +15 +15 1027.1 1018.4
20 20.08 З 1 20 км н/о +13.1 +9.5 79 +13 +13 1027.5 1018.8
21 20.08 ЮЗ 1 20 км н/о +12.8 +9.8 82 +14 +14 1027.9 1019.1
22 20.08 ЮЗ 1 20 км н/о +12.2 +9.4 83 +13 +13 1028.1 1019.3
23 20.08 ЮЗ 1 20 км н/о +11.5 +9.4 87 +12 +12 1028.2 1019.4
00 21.08 Ю 1 20 км н/о +11.4 +9.5 88 +12 +12 1028.2 1019.4
01 21.08 Ю 1 19 км н/о +11.0 +9.1 88 +12 +12 1028.0 1019.2
02 21.08 Ю 1 20 км н/о +10.4 +8.7 89 +10 +10 1028.2 1019.4
03 21.08 ЮВ 1 19 км н/о +9.8 +8.4 91 +9 +9 1028.0 1019.2
04 21.08 ЮВ 1 19 км н/о +9.1 +7.9 92 +9 +9 1028.2 1019.3
05 21.08 ЮВ 1 16 км н/о +8.8 +7.7 93 +8 +8 1028.6 1019.7 0.2
06 21.08 ЮВ 1 19 км н/о +10.3 +9.4 94 +10 +10 1028.8 1020.0 +8.7 +17.2 0.2
07 21.08 ЮВ 1 19 км н/о +12.7 +11.4 92 +13 +13 1029.1 1020.3
08 21.08 ЮВ 1 19 км н/о +15.7 +13.4 86 +17 +17 1029.2 1020.5
09 21.08 Ю 1 18 км н/о +18.1 +13.8 76 +20 +20 1029.0 1020.4
10 21.08 Ю 1 20 км н/о +19.2 +11.5 61 +22 +22 комфорт 1028.9 1020.3
11 21.08 Ю 1 20 км н/о +20.4 +10.2 52 +23 +23 комфорт 1028.2 1019.7
12 21.08 ЮВ 1 19 км н/о +20.9 +8.5 45 +24 +24 комфорт 1027.7 1019.2
13 21.08 В 1 19 км н/о +21.7 +7.1 39 +23 +23 комфорт 1027.3 1018.8
14 21.08 В 1 19 км н/о +22.2 +8.0 40 +23 +23 комфорт 1026.9 1018.4
15 21.08 ЮВ 1 20 км н/о +22.4 +7.8 39 +23 +23 комфорт 1026.4 1017.9
16 21.08 В 1 20 км н/о +22.4 +6.2 35 +23 +23 комфорт 1026.2 1017.7
17 21.08 В 1 20 км н/о +22.2 +6.8 37 +23 +23 комфорт 1025.9 1017.4
18 21.08 СЗ 2 20 км н/о +20.1 +12.6 62 +23 +23 комфорт 1025.9 1017.4 +10.4 +23.3
19 21.08 СЗ 2 20 км н/о +17.2 +12.9 76 +18 +18 1026.2 1017.6
20 21.08 СЗ 1 19 км н/о +15.0 +12.1 83 +15 +15 1026.6 1017.9
21 21.08 С 1 18 км н/о +13.5 +11.5 88 +14 +14 1026.7 1018.0
22 21.08 В 1 20 км н/о +14.0 +12.4 90 +14 +14 1026.5 1017.8
23 21.08 штиль 0 20 км н/о +13.2 +10.7 85 +13 +13 1026.3 1017.6
00 22.08 СЗ 1 13 км н/о +12.0 +10.4 90 +13 +13 1026.4 1017.6
01 22.08 СЗ 1 7000 м н/о +11.9 +10.8 93 +13 +13 1026.2 1017.4
02 22.08 СВ 1 3000 м дымка н/о +12.0 +11.1 94 +13 +13 1026.1 1017.3
03 22.08 ЮВ 1 600 м туман н/о +11.0 +10.2 95 +11 +11 1025.8 1017.0
04 22.08 Ю 1 9000 м н/о +10.9 +10.1 95 +10 +10 1025.9 1017.1
05 22.08 Ю 1 6000 м н/о +10.7 +9.9 95 +11 +11 1026.1 1017.3
06 22.08 Ю 1 10 км н/о +11.5 +10.9 96 +12 +12 1026.5 1017.7 +10.6 +20.1 0.2
07 22.08 штиль 0 13 км н/о +13.8 +13.2 96 +13 +13 1026.6 1017.9
08 22.08 штиль 0 17 км н/о +16.7 +15.6 93 +17 +17 1026.8 1018.2
09 22.08 С 1 19 км н/о +19.5 +12.3 63 +22 +22 комфорт 1026.8 1018.3
10 22.08 З 1 20 км н/о +20.6 +10.7 53 +23 +23 комфорт 1027.0 1018.5
11 22.08 СЗ 2 20 км н/о +21.3 +12.2 56 +23 +23 комфорт 1026.7 1018.2
12 22.08 СЗ 2 20 км н/о +22.1 +11.8 52 +24 +24 комфорт 1026.6 1018.1
13 22.08 З 3 19 км н/о +21.8 +12.4 55 +24 +24 комфорт 1026.3 1017.8
14 22.08 СЗ 3 20 км н/о +21.6 +11.0 51 +23 +23 комфорт 1026.2 1017.7
15 22.08 СЗ 3 20 км н/о +21.5 +11.5 53 +24 +24 комфорт 1026.1 1017.6
16 22.08 СЗ 3 20 км н/о +21.0 +9.9 49 +23 +23 комфорт 1026.0 1017.5
17 22.08 СЗ 3 20 км н/о +20.2 +11.4 57 +22 +22 комфорт 1025.8 1017.3
18 22.08 СЗ 2 20 км н/о +18.9 +11.5 62 +20 +20 1026.2 1017.6 +11.5 +22.1
19 22.08 З 1 20 км н/о +16.6 +11.1 70 +18 +18 1026.4 1017.8
20 22.08 З 1 20 км н/о +14.7 +10.7 77 +16 +16 1026.8 1018.1 0.0
21 22.08 З 1 20 км н/о +13.9 +10.9 82 +15 +15 1026.9 1018.2 0.0
22 22.08 Ю 1 20 км н/о +13.8 +11.1 84 +15 +15 1026.9 1018.2
23 22.08 ЮВ 1 20 км н/о +12.6 +10.3 86 +13 +13 1026.7 1018.0
00 23.08 ЮВ 1 20 км н/о +11.8 +10.0 89 +12 +12 1026.8 1018.0
01 23.08 ЮВ 1 18 км н/о +11.6 +10.2 91 +11 +11 1026.5 1017.7
02 23.08 В 1 14 км н/о +10.4 +8.8 90 +11 +11 1026.4 1017.6
03 23.08 В 1 14 км н/о +10.4 +9.2 92 +11 +11 1026.2 1017.4
04 23.08 ЮВ 1 13 км н/о +10.5 +9.6 94 +10 +10 1026.1 1017.3
05 23.08 ЮВ 1 11 км н/о +9.7 +8.6 93 +9 +9 1026.0 1017.2
06 23.08 ЮВ 1 15 км н/о +10.7 +9.8 94 +10 +10 1026.2 1017.4 +9.7 +18.9 0.0
07 23.08 ЮВ 1 20 км н/о +13.6 +12.7 94 +14 +14 1026.3 1017.6
08 23.08 ЮВ 1 19 км н/о +17.1 +12.6 75 +19 +19 1026.1 1017.5 0.2
09 23.08 В 1 20 км н/о +19.7 +13.4 67 +23 +23 комфорт 1025.9 1017.4 0.2
10 23.08 В 1 20 км н/о +21.3 +12.4 57 +24 +24 комфорт 1025.8 1017.3
11 23.08 В 1 20 км н/о +23.0 +8.7 40 +24 +24 комфорт 1025.2 1016.8
12 23.08 ЮВ 1 20 км н/о +24.5 +10.4 41 +26 +26 жарко 1024.6 1016.2
13 23.08 Ю 1 20 км н/о +25.5 +10.1 38 +26 +26 жарко 1024.1 1015.8
14 23.08 В 1 20 км н/о +25.8 +9.2 35 +26 +26 жарко 1023.7 1015.4
15 23.08 СВ 1 20 км н/о +26.2 +9.5 35 +27 +27 жарко 1023.0 1014.7
16 23.08 СВ 2 20 км н/о +25.9 +9.7 36 +27 +27 жарко 1022.6 1014.3
17 23.08 СЗ 2 19 км н/о +25.9 +11.3 40 +27 +27 жарко 1021.9 1013.6
18 23.08 СЗ 2 20 км н/о +23.7 +13.3 52 +26 +26 жарко 1022.0 1013.6 +10.8 +26.8
19 23.08 СЗ 1 20 км н/о +19.7 +13.6 68 +23 +23 комфорт 1022.1 1013.6
20 23.08 С 1 20 км н/о +17.2 +13.9 81 +18 +18 1022.2 1013.6
21 23.08 С 1 20 км н/о +16.5 +14.1 86 +18 +18 1022.1 1013.5
22 23.08 СВ 1 20 км н/о +16.6 +13.9 84 +17 +17 1021.8 1013.2
23 23.08 В 2 20 км н/о +16.1 +12.3 78 +16 +16 1021.6 1013.0
00 24.08 В 1 20 км н/о +15.2 +11.4 78 +16 +16 1021.4 1012.8
01 24.08 В 1 19 км н/о +15.4 +12.0 80 +16 +16 1021.0 1012.4
02 24.08 В 1 16 км н/о +14.4 +11.5 83 +15 +15 1020.8 1012.2
03 24.08 В 1 14 км н/о +14.6 +11.9 84 +16 +16 1020.6 1012.0
04 24.08 В 1 11 км н/о +13.3 +11.0 86 +13 +13 1020.4 1011.7
05 24.08 В 1 9000 м н/о +13.2 +11.3 88 +13 +13 1020.3 1011.6
06 24.08 ЮВ 1 9000 м н/о +14.6 +12.6 88 +15 +15 1020.1 1011.5 +13.0 +23.7
07 24.08 В 1 11 км н/о +17.2 +13.7 80 +18 +18 1020.3 1011.8
08 24.08 ЮВ 1 17 км н/о +19.9 +15.1 74 +23 +23 комфорт 1020.2 1011.7
09 24.08 ЮВ 1 19 км н/о +23.4 +14.4 57 +27 +27 душно 1020.0 1011.6
10 24.08 ЮВ 1 20 км н/о +26.0 +13.8 47 +28 +28 жарко 1019.7 1011.4
11 24.08 ЮВ 2 19 км н/о +27.7 +12.1 38 +29 +29 жарко 1019.1 1010.9
12 24.08 В 3 20 км н/о +27.9 +10.6 34 +28 +28 жарко 1018.7 1010.5
13 24.08 ЮВ 2 20 км н/о +28.9 +11.5 34 +30 +30 жарко 1018.4 1010.2
14 24.08 ЮВ 2 20 км н/о +29.3 +12.3 35 +30 +30 жарко 1018.0 1009.8
15 24.08 ЮВ 2 20 км н/о +29.5 +10.6 31 +30 +30 жарко 1017.7 1009.5
16 24.08 В 1 20 км н/о +29.3 +12.7 36 +30 +30 жарко 1017.4 1009.2
17 24.08 ЮВ 2 18 км н/о +29.1 +11.2 33 +30 +30 жарко 1017.1 1008.9
18 24.08 В 1 20 км н/о +27.4 +12.6 40 +29 +29 жарко 1017.0 1008.8 +14.6 +30.0
19 24.08 В 1 20 км н/о +23.8 +13.1 51 +26 +26 жарко 1017.3 1009.0
20 24.08 В 2 20 км н/о +21.7 +13.3 59 +24 +24 комфорт 1017.5 1009.1
21 24.08 В 2 20 км н/о +20.2 +13.2 64 +23 +23 комфорт 1017.6 1009.2
22 24.08 В 1 20 км н/о +20.1 +12.8 63 +23 +23 комфорт 1017.7 1009.3
23 24.08 В 1 20 км н/о +19.6 +12.4 63 +22 +22 комфорт 1017.7 1009.2
00 25.08 В 1 20 км н/о +19.0 +12.3 65 +21 +21 комфорт 1017.6 1009.1
01 25.08 ЮВ 1 20 км н/о +18.1 +12.5 70 +19 +19 1017.5 1009.0
02 25.08 В 2 20 км н/о +17.0 +12.3 74 +18 +18 1017.5 1009.0
03 25.08 ЮВ 1 20 км н/о +17.1 +12.6 75 +18 +18 1017.6 1009.1
04 25.08 ЮВ 1 20 км н/о +16.8 +12.9 78 +18 +18 1017.5 1009.0
05 25.08 В 1 20 км н/о +16.5 +12.6 78 +17 +17 1017.7 1009.2
06 25.08 ЮВ 1 20 км н/о +17.1 +13.4 79 +18 +18 1017.9 1009.4 +16.2 +27.4
07 25.08 ЮВ 1 20 км н/о +19.8 +15.2 75 +23 +23 комфорт 1018.3 1009.9
08 25.08 ЮВ 1 20 км н/о +23.1 +16.9 68 +28 +28 душно 1018.5 1010.2
09 25.08 ЮВ 1 20 км н/о +26.2 +16.2 54 +30 +30 душно 1018.7 1010.4
10 25.08 ЮВ 1 20 км н/о +28.1 +14.7 44 +31 +31 душно 1018.6 1010.4
11 25.08 В 1 20 км н/о +29.1 +13.7 39 +31 +31 жарко 1018.3 1010.1
12 25.08 ЮВ 1 20 км н/о +29.9 +12.3 34 +31 +31 жарко 1018.3 1010.1
13 25.08 ЮВ 1 20 км н/о +30.6 +11.5 31 +31 +31 жарко 1018.2 1010.0

 

Местоположение метеостанции Аббевилль (Франция): широта 50.13 долгота 1.83 высота над уровнем моря 77 м.

В архиве по умолчанию представлена погода в Аббевилле за последнюю неделю. Архивные данные за месяц целиком и за предыдущие месяцы, начиная с января 2011 года, Вы можете получить, выбрав интересующий диапазон дат из раскрывающегося списка и нажав кнопку "Ввод!".


*Определитесь, кто Вы:
робот инопланетянин человек

Внимание! Время в таблицах - всемирное. Для получения местного времени необходимо прибавить поправку, которая равна 1 ч.

Смотрите также архив погоды в соседних городах и на ближайших метеорологических станциях:

Погода в Ле-Туке-Пари-Плаже (Франция) (46 км)
Погода в Дьеппе (Франция) (57 км)
Погода в Меоте (Франция) (65 км)
Погода в Булонь-сюр-Мере (Франция) (69 км)
Погода в Бове (Франция) (76 км)
Погода в Руанском (Франция) (96 км)
Погода в Лилле (Франция) (103 км)
Погода в Сен-Кантене (Франция) (104 км)
Погода в Дюнкерке (Франция) (108 км)
Погода в Крее (Франция) (110 км)

Пояснения к столбцам:

Ветер - указаны скорость ветра в м/с - средняя за 10 мин, порывы в срок и между сроками (в фигурных скобках) и направление, откуда дует ветер: С - северный, СВ - северо-восточный, В - восточный, ЮВ - юго-восточный, Ю - южный, ЮЗ - юго-западный, З - западный, СЗ - северо-западный.
Видимость - горизонтальная дальность видимости в метрах или километрах. При видимости от 1 до 10 км при отсутствии осадков обычно наблюдается дымка, при ухудшении видимости до 1 км и менее - туман. В сухую погоду видимость может ухудшаться дымом, пылью или мглою.
Явления - указаны атмосферные явления, наблюдавшиеся в срок или в последний час перед сроком; фигурными скобками обозначены явления, наблюдавшиеся между сроками (за 1-3 часа до срока); квадратными скобками обозначены град или гололедные отложения с указанием их диаметра в мм.
Облачность - указаны через наклонную черту общая и нижняя облачность в баллах и высота нижней границы облаков в метрах; квадратными скобками обозначены формы облаков: Ci - перистые, Cs - перисто-слоистые, Cc - перисто-кучевые, Ac - высококучевые, As - высокослоистые, Sc - слоисто-кучевые, Ns - слоисто-дождевые, Cu - кучевые, Cb - кучево-дождевые. Подробнее классификацию облаков см. в Атласе облаков (PDF).
T - Температура воздуха - температура, измеренная на высоте 2 м над землей.
Td - Температура точки росы - температура, при понижении до которой содержащийся в воздухе водяной пар достигнет насыщения.
f - Относительная влажность воздуха - влажноcть воздуха, измеренная на высоте 2 м над землей.
Te - Эффективная температура - температура, которую ощущает одетый по сезону человек в тени. Характеристика душности погоды. При расчете учитывается влияние влажности воздуха и скорости ветра на теплоощущения человека.
Tes - Эффективная температура на солнце - температура, которую ощущает человек, с поправкой на солнечный нагрев. Характеристика знойности погоды. Зависит от высоты солнца над горизонтом, облачности и скорости ветра. Ночью, в пасмурную погоду, а также при ветре 12 м/с и более поправка равна нулю.
P - Атмосферное давление - приведенное к уровню моря атмосферное давление.
Po - Атмосферное давление - измеренное на уровне метеостанции атмосферное давление.
Tmin - Минимальная температура - минимум температуры воздуха на высоте 2 м над землей.
Tmax - Максимальная температура - максимум температуры воздуха на высоте 2 м над землей.
R - Количество осадков - Количество выпавших осадков за период времени, мм. При наведении курсора мыши на число - период времени, за который выпало указанное количество осадков.
R24 - Количество осадков - Количество выпавших осадков за 24 часа, мм.
S - Снежный покров - Высота снежного покрова, см. При наведении курсора мыши на число - состояние снежного покрова и степень покрытия местности в баллах.